Find Starlink 2147

NORAD ID: 47736 Int'l Des: 2021-017 Owner: SPXS Country: US Constellation: starlink operational
LEOCIRCULARSTARLINK_TYPE

現在のビュー

3D地球を読み込み中...

About Starlink 2147

Starlink 2147 (NORAD 47736) is a starlink constellation satellite (v1.0) launched Mar 4, 2021 by SPXS of US. It operates in LEO, CIRCULAR, STARLINK_TYPE orbit with a mass of 260.00 kg.

Starlink 2147について

説明を読み込み中...

次回通過

Passes for default location (London). Set your location on the main map for personalized predictions.

高度履歴

Loading altitude history...

軌道要素

1 47736U 21017Q 26168.83334299 .00073262 00000-0 15121-2 0 9994
2 47736 53.0717 91.9142 0004362 74.0616 286.0870 15.45218679293303
Epoch: Jun 17, 2026 • Age: 7 hours

現在のステータス

高度 430.5 km
速度 7.66 km/s
衛星直下点 18.92°N, 53.89°W
打ち上げ日 Mar 4, 2021
運用期間 5.2 years
タイプ internet

技術仕様

分類 Payload
質量 260.00 kg
乾燥質量 248.00 kg
総質量 260.00 kg
長さ 0.20 m
直径 2.80 m
スパン 9.00 m
形状 Box + pan
製造者 SPXS
バスタイプ Starlink
フェーズステータス In Orbit
所有者/国 SPXS/US

Most Searched